Flag for China Weather past 2 weeks in Kashgar, Xinjiang, China

Now
59 °F

Partly sunny.


Feels Like: 57 °F
Forecast: 55 / 62 °F
Wind: 13 mph from Northwest

Location: Kashi Airport

Current Time: Apr 19, 2015 at 5:52:56 PM

Latest Report: Apr 19, 2015 at 5:00 PM


Visibility: 5 mi

Pressure: 30.01 "Hg

Humidity: 42%

Dew point: 36 °F

Location of KashgarLocation

Historic Weather in Kashgar — Graph

°F

Kashgar temperature yesterday

Maximum temperature yesterday: 66 °F (at 1:00 PM)
Minimum temperature yesterday: 50 °F (at 8:00 AM)
Average temperature yesterday: 61 °F

Past Weeks' High & Low Weather Summary

 TemperatureHumidityPressure
High81 °F (Apr 15, 3:00 PM)76% (Apr 9, 6:00 AM)30.39 "Hg (Apr 9, 6:00 AM)
Low45 °F (Apr 5, 8:00 AM)7% (Apr 16, 5:00 PM)29.74 "Hg (Apr 15, 8:00 PM)
Average62 °F25%30.07 "Hg
* Reported Apr 4 4:00 PM — Apr 19 4:00 PM, Kashgar, Weather by CustomWeather, © 2015

Note: Actual official high and low records may vary slightly from our data, if they occured in-between our weather recording intervals... More about our weather records

Advertising

Kashgar weather history for previous 24 hours

 ConditionsComfort  
Time TempWeatherWind HumidityBarometerVisibility
4:00 PM
Sun, Apr 19
59 °FPartly sunny.15 mph42%30.04 "Hg5 mi
3:00 PM57 °FPartly sunny.15 mph48%30.04 "Hg5 mi
2:00 PM55 °FPartly sunny.15 mph51%30.07 "Hg4 mi
1:00 PM59 °FPartly sunny.8 mph36%30.07 "Hg4 mi
12:00 PM57 °FPartly sunny.13 mph39%30.07 "Hg4 mi
11:00 AM57 °FPartly sunny.3 mph36%30.07 "Hg4 mi
10:00 AM57 °FPartly sunny.6 mph36%30.04 "Hg4 mi
9:00 AM55 °FPartly sunny.6 mph41%30.04 "Hg4 mi
8:00 AM55 °FPassing clouds.6 mph41%30.01 "Hg5 mi
7:00 AM55 °FPassing clouds.10 mph41%30.01 "Hg5 mi
6:00 AM55 °FPassing clouds.8 mph38%30.01 "Hg5 mi
5:00 AM57 °FPassing clouds.10 mph36%30.01 "Hg5 mi
4:00 AM57 °FPassing clouds.10 mph36%30.01 "Hg5 mi
3:00 AM59 °FClear.3 mph31%30.01 "Hg10 mi
2:00 AM61 °FClear.10 mph27%30.01 "Hg10 mi
1:00 AM61 °FRefreshingly cool.10 mph27%29.98 "Hg6 mi
12:00 AM63 °FMild.6 mph22%29.98 "Hg4 mi
11:00 PM
Sat, Apr 18
63 °FPassing clouds.3 mph25%29.95 "Hg2 mi
10:00 PM64 °FPassing clouds.1 mph21%29.92 "Hg2 mi
9:00 PM64 °FPartly sunny.3 mph21%29.89 "Hg2 mi
8:00 PM64 °FPartly sunny.3 mph21%29.89 "Hg2 mi
7:00 PM64 °FPartly sunny.3 mph19%29.89 "Hg2 mi
6:00 PM66 °FPartly sunny.8 mph18%29.89 "Hg2 mi
5:00 PM66 °FPartly sunny.6 mph18%29.89 "Hg2 mi
Weather by CustomWeather, © 2015

See weather overviewHow to use our weather pages